Regional Weather Roundup
Issued by NWS

Home | Current Version | Previous Version | Graphics & Text | Print | Product List | Glossary On
Versions: 1 2 3 4 5 6 7 8 9 10 11 12 13 14 15 16 17 18 19 20 21 22 23 24 25 26 27 28 29 30 31 32 33 34 35 36 37 38 39 40 41 42 43 44 45 46 47 48 49 50
000
ASUS43 KLSX 230207
RWRMO

WEATHER SUMMARY FOR MISSOURI
NATIONAL WEATHER SERVICE SPRINGFIELD MO
800 PM CST SAT NOV 22 2014

NOTE: "FAIR" INDICATES FEW OR NO CLOUDS BELOW 12,000 FEET WITH NO
       SIGNIFICANT WEATHER AND/OR OBSTRUCTIONS TO VISIBILITY.
       CURRENT SKY AND/OR WEATHER CONDITIONS ARE NOT AVAILABLE FOR
       CHILLICOTHE AND FARMINGTON.

MOZ001>031-035>038-043-044-053-054-230300-
...NORTHERN AND WESTERN MISSOURI...

CITY           SKY/WX    TMP DP  RH WIND       PRES   REMARKS
KANSAS CTY INT CLOUDY    56  51  84 S17       29.73F
KANSAS C DTWN  CLOUDY    58  51  78 S13G26    29.75F
ST JOSEPH      CLOUDY    55  51  86 S20G26    29.70F
CHILLICOTHE      N/A     55  50  83 S7        29.77S
KIRKSVILLE     MOCLDY    52  50  93 S10       29.79F

$$
MOZ066>068-077>081-088>096-101>105-230300-
...SOUTHWEST MISSOURI...

CITY           SKY/WX    TMP DP  RH WIND       PRES   REMARKS
SPRINGFIELD    MOCLDY    52  50  93 SE15      29.85F
JOPLIN         MOCLDY    52  50  93 S8        29.82F

$$
MOZ032>034-039>042-045>050-055>058-069>072-230300-
...CENTRAL MISSOURI...

CITY           SKY/WX    TMP DP  RH WIND       PRES   REMARKS
COLUMBIA       CLOUDY    54  51  90 S13       29.85F
JEFFERSON CITY CLOUDY    55  49  80 SE6       29.86F
ROLLA          LGT RAIN  52  49  89 S16G24    29.87F
SEDALIA        CLEAR     54  50  86 S15       29.82F
WHITEMAN AFB   FAIR      52  50  91 S13       29.80F
WARRENSBURG    PTCLDY    52  48  87 S9        29.79F
OSAGE BEACH    PTCLDY    54  46  76 S9        29.87S

$$
MOZ051-052-059>065-230300-
...EAST CENTRAL MISSOURI...

CITY           SKY/WX    TMP DP  RH WIND       PRES   REMARKS
ST LOUIS INTL  CLOUDY    54  50  86 S8        29.91F
SPIRIT OF STL  LGT RAIN  54  50  87 VRB7      29.90S
ST CHARLES     CLOUDY    53  51  93 S9        29.91S

$$
MOZ072>076-082>087-097>100-106>115-230300-
...SOUTH CENTRAL AND SOUTHEAST MISSOURI...

CITY           SKY/WX    TMP DP  RH WIND       PRES   REMARKS
CAPE GIRARDEAU CLOUDY    58  43  57 S10       30.01F
FARMINGTON     CLOUDY    52  48  87 SE14      29.96F
POPLAR BLUFF   CLOUDY    53  45  74 S3        29.99F
WEST PLAINS    CLOUDY    52  48  86 S15G24    29.96S

$$


USA.gov is the U.S. government's official web portal to all federal, state and local government web resources and services.